Temp
20 20 20 20 20 20 20 21 20 21 21 20 20 20 19 19 19 19 19 19 19 18 18 18 18 18 18 18 18 18 18 17 18 18 18 18 17 17 16 16 17 16 17
21 20 20 20 20 20 20 21 20 20 21 20 20 20 20 20 19 19 19 19 18 18 18 18 18 18 18 18 18 17 17 17 18 18 17 16 17 17 17 16 16 15 16
21 21 20 21 20 20 20 20 20 20 20 20 20 20 20 20 20 19 19 19 18 18 18 18 18 18 18 18 18 17 17 18 18 17 17 17 17 17 17 16 16 16 16
21 21 20 20 21 21 20 20 20 20 20 20 20 20 20 20 20 19 19 19 19 18 18 18 18 18 18 18 18 18 17 18 17 17 17 17 17 17 17 16 16 16 16
21 21 21 20 20 20 20 20 20 20 20 20 20 19 20 20 20 19 19 19 19 18 18 18 18 18 18 18 18 18 18 18 17 17 17 17 17 17 17 16 16 16 16
21 21 21 20 20 20 20 20 20 20 20 20 20 19 19 19 19 19 19 19 19 19 18 18 18 18 18 18 18 18 18 18 17 17 17 17 17 17 17 17 16 16 16
21 21 20 20 20 20 20 20 20 20 19 20 19 19 19 19 19 19 19 18 18 18 18 18 18 18 17 18 18 18 17 17 17 17 17 17 17 17 17 17 17 17 16
21 21 20 20 20 20 20 20 20 19 19 19 19 19 19 19 19 19 19 18 18 18 18 18 18 18 18 17 18 18 17 17 17 17 17 17 17 17 17 17 17 17 16
20 20 20 20 20 20 20 20 20 20 19 19 19 19 19 19 19 19 19 19 18 18 18 18 18 18 18 18 18 17 17 17 17 17 17 17 17 17 17 17 17 17 17
20 21 21 20 20 20 20 20 20 20 19 19 19 19 19 19 19 19 19 19 19 18 18 18 18 18 18 18 18 17 17 17 17 17 17 17 17 17 17 17 17 17 17
20 20 21 20 20 20 20 20 20 20 20 19 19 19 19 19 19 19 19 19 19 19 19 19 18 18 18 17 17 18 17 17 17 18 17 17 17 17 18 18 18 17 17
20 20 20 21 21 20 20 19 20 20 20 20 19 19 19 19 19 18 18 19 19 19 18 19 18 18 18 17 17 17 17 17 17 17 18 17 17 17 17 18 18 17 17
20 20 20 20 20 20 20 20 20 20 20 20 20 20 19 19 19 19 18 18 18 18 18 19 18 18 18 17 17 17 17 17 17 17 18 18 17 17 17 18 17 18 17
20 20 20 20 19 20 20 20 20 20 20 20 19 19 19 19 19 18 18 19 19 18 18 18 18 18 18 18 18 17 17 17 17 17 18 18 17 17 18 18 18 17 17
20 21 20 20 20 19 19 19 19 19 20 19 19 19 19 19 19 18 18 18 18 18 18 18 18 18 18 18 18 17 17 17 17 17 18 18 18 17 17 17 18 17 17
21 20 20 20 20 19 19 19 19 19 19 19 19 19 18 18 18 18 18 18 18 18 18 18 18 18 18 18 18 18 17 17 18 18 18 17 18 18 17 17 17 17 17
21 21 21 20 20 19 19 19 19 18 18 19 19 18 18 18 18 18 17 17 17 17 18 17 18 18 18 18 18 17 17 17 17 17 18 17 17 17 17 17 17 17 17
21 22 21 20 20 20 20 19 19 18 18 19 18 18 18 18 18 18 17 17 17 17 17 17 17 18 18 17 17 18 18 17 17 17 18 17 17 17 17 17 17 17 17
22 21 21 21 21 20 19 19 19 19 19 19 18 18 18 18 18 18 17 17 16 16 17 17 17 17 18 18 17 18 18 18 18 18 17 17 18 17 17 17 17 17 17
22 21 21 21 21 20 20 19 19 18 18 18 18 18 18 17 17 17 17 16 16 16 17 17 17 17 17 17 17 18 18 18 17 18 18 18 17 18 17 17 17 17 17
19 20 20 21 21 20 20 19 19 19 18 18 18 17 17 17 17 16 16 16 16 16 16 16 16 17 17 17 17 18 18 17 17 17 18 17 17 18 17 17 17 17 17
17 17 16 18 19 19 19 18 18 18 18 17 17 17 17 16 16 16 16 16 16 16 16 16 16 16 17 17 17 18 18 17 17 17 17 17 18 18 17 17 17 17 17
16 19 17 16 19 18 19 18 18 18 17 17 17 16 16 16 16 16 16 16 16 16 16 16 16 16 17 17 17 17 18 18 18 18 18 17 17 17 17 17 17 17 17
16 19 21 19 19 18 19 18 18 17 17 17 16 16 16 16 16 16 15 15 15 15 15 16 16 16 16 17 17 17 18 18 18 18 18 18 17 18 18 18 17 17 16
18 18 21 18 18 18 19 18 17 17 16 15 15 15 15 16 16 15 15 15 15 15 15 15 15 15 16 16 17 17 17 17 18 18 18 18 18 18 18 18 17 17 16
19 19 20 19 18 19 17 17 17 16 15 15 15 15 15 15 16 15 15 15 15 15 15 15 15 15 16 16 16 17 17 17 18 18 18 18 18 18 18 19 18 17 17
Height
1519 1523 1526 1528 1531 1533 1535 1537 1539 1542 1543 1544 1545 1546 1547 1548 1549 1550 1551 1553 1554 1555 1557 1556 1557 1558 1559 1559 1560 1560 1560 1562 1564 1564 1565 1566 1567 1569 1570 1571 1572 1572 1572
1516 1520 1525 1529 1532 1535 1536 1538 1539 1541 1543 1545 1547 1547 1549 1549 1550 1551 1552 1554 1555 1556 1557 1558 1558 1558 1559 1560 1561 1561 1562 1564 1565 1566 1567 1568 1569 1570 1572 1573 1574 1575 1576
1517 1521 1524 1528 1531 1535 1537 1539 1540 1541 1543 1545 1547 1548 1549 1550 1551 1552 1553 1555 1556 1557 1558 1559 1559 1559 1559 1560 1562 1562 1564 1565 1566 1568 1569 1570 1571 1572 1573 1574 1575 1577 1578
1518 1521 1525 1527 1531 1533 1536 1539 1541 1542 1543 1545 1547 1548 1550 1551 1552 1553 1554 1556 1556 1557 1558 1560 1561 1561 1561 1561 1562 1564 1565 1567 1568 1569 1571 1573 1573 1574 1574 1576 1577 1579 1580
1520 1523 1526 1529 1533 1534 1536 1539 1542 1543 1545 1546 1547 1549 1551 1552 1553 1553 1554 1556 1557 1558 1559 1560 1562 1562 1562 1563 1563 1565 1567 1568 1570 1571 1573 1574 1575 1575 1576 1577 1579 1580 1581
1521 1525 1528 1530 1533 1535 1538 1539 1541 1544 1546 1547 1549 1549 1551 1553 1554 1555 1556 1556 1557 1558 1559 1560 1561 1563 1564 1564 1565 1566 1568 1570 1571 1573 1574 1575 1576 1577 1577 1578 1580 1581 1582
1521 1524 1528 1531 1533 1535 1537 1540 1541 1544 1547 1548 1550 1550 1551 1553 1555 1556 1556 1557 1557 1558 1559 1560 1562 1562 1563 1565 1567 1567 1569 1571 1573 1574 1575 1576 1577 1578 1578 1579 1580 1582 1583
1522 1524 1527 1531 1534 1536 1538 1540 1542 1545 1547 1549 1550 1552 1552 1553 1554 1556 1557 1558 1558 1558 1558 1560 1562 1562 1563 1565 1567 1568 1570 1571 1573 1575 1576 1577 1579 1580 1580 1581 1582 1583 1584
1525 1527 1527 1531 1534 1537 1538 1540 1542 1544 1546 1548 1550 1552 1553 1554 1554 1556 1557 1558 1559 1559 1559 1560 1561 1563 1564 1565 1567 1568 1571 1571 1573 1575 1577 1578 1580 1581 1582 1582 1583 1584 1585
1526 1527 1529 1532 1536 1537 1539 1540 1541 1543 1545 1546 1549 1551 1552 1553 1554 1555 1557 1557 1559 1558 1559 1560 1561 1564 1564 1565 1566 1569 1571 1572 1573 1574 1576 1578 1580 1582 1583 1583 1584 1585 1586
1525 1528 1531 1534 1535 1537 1540 1541 1541 1542 1544 1546 1548 1549 1551 1553 1555 1555 1556 1557 1558 1559 1559 1559 1561 1562 1564 1565 1566 1568 1570 1572 1572 1573 1575 1577 1579 1580 1582 1583 1584 1585 1586
1527 1528 1530 1532 1535 1536 1537 1539 1540 1542 1543 1545 1546 1548 1549 1551 1553 1554 1555 1556 1557 1558 1558 1559 1560 1561 1563 1565 1566 1567 1569 1571 1572 1573 1574 1577 1579 1580 1581 1583 1584 1585 1586
1522 1524 1527 1531 1533 1535 1536 1538 1539 1540 1542 1543 1545 1546 1548 1550 1552 1553 1553 1554 1556 1557 1557 1557 1558 1560 1562 1563 1565 1567 1567 1569 1571 1572 1573 1574 1577 1579 1581 1582 1583 1585 1585
1524 1526 1527 1529 1532 1534 1535 1537 1537 1539 1540 1542 1542 1544 1546 1547 1549 1551 1552 1554 1555 1556 1556 1556 1557 1559 1560 1563 1564 1564 1565 1567 1569 1571 1572 1573 1575 1578 1579 1581 1582 1583 1585
1522 1524 1526 1527 1530 1533 1534 1535 1537 1537 1538 1539 1541 1543 1543 1545 1547 1549 1549 1551 1552 1554 1555 1555 1556 1557 1558 1560 1561 1563 1563 1565 1566 1569 1570 1570 1574 1576 1578 1580 1581 1582 1584
1521 1523 1526 1527 1529 1532 1535 1535 1536 1536 1537 1537 1538 1539 1540 1542 1545 1546 1548 1548 1550 1552 1553 1553 1554 1554 1555 1557 1559 1560 1562 1563 1563 1566 1568 1570 1572 1574 1575 1577 1579 1580 1582
1519 1522 1524 1526 1529 1531 1534 1535 1536 1536 1536 1536 1535 1537 1538 1539 1540 1543 1545 1546 1547 1549 1550 1551 1551 1552 1553 1555 1556 1558 1559 1559 1559 1562 1565 1568 1570 1572 1574 1574 1577 1578 1580
1521 1522 1523 1524 1526 1528 1531 1535 1535 1535 1535 1535 1535 1534 1534 1535 1536 1537 1540 1542 1544 1545 1547 1548 1549 1549 1550 1552 1553 1556 1556 1555 1556 1558 1562 1564 1563 1568 1570 1572 1574 1576 1578
1519 1525 1525 1525 1526 1529 1529 1532 1535 1535 1534 1533 1533 1533 1532 1531 1532 1533 1535 1537 1540 1541 1542 1545 1546 1547 1548 1549 1552 1553 1554 1553 1554 1556 1559 1561 1562 1564 1567 1568 1570 1572 1575
1520 1524 1527 1528 1528 1525 1529 1530 1531 1533 1533 1532 1530 1529 1528 1528 1528 1528 1530 1533 1534 1535 1537 1540 1542 1544 1545 1546 1550 1551 1553 1552 1553 1555 1557 1559 1560 1562 1563 1565 1567 1567 1570
1515 1524 1530 1528 1525 1527 1528 1530 1529 1531 1530 1529 1526 1525 1524 1524 1524 1524 1525 1528 1529 1531 1532 1536 1539 1542 1542 1544 1547 1549 1551 1550 1552 1553 1555 1557 1557 1560 1562 1563 1563 1564 1566
1517 1521 1519 1525 1524 1530 1525 1529 1527 1528 1526 1524 1522 1520 1519 1518 1520 1519 1521 1523 1525 1527 1528 1531 1535 1538 1540 1541 1545 1547 1550 1551 1551 1551 1552 1553 1556 1558 1558 1559 1560 1561 1563
1518 1519 1521 1518 1522 1526 1525 1525 1524 1524 1523 1520 1518 1515 1514 1513 1514 1515 1516 1518 1521 1522 1524 1527 1531 1534 1536 1539 1543 1546 1546 1547 1548 1549 1550 1551 1553 1554 1554 1555 1555 1556 1558
1516 1518 1518 1514 1522 1521 1524 1523 1523 1522 1520 1518 1514 1511 1510 1508 1508 1509 1511 1513 1515 1517 1519 1522 1526 1531 1533 1536 1539 1542 1544 1544 1544 1545 1547 1548 1550 1551 1550 1551 1550 1551 1552
1514 1517 1520 1520 1519 1519 1522 1523 1524 1520 1518 1515 1511 1506 1505 1504 1503 1503 1505 1508 1511 1513 1515 1518 1522 1526 1529 1532 1535 1538 1541 1542 1542 1543 1545 1546 1547 1548 1547 1546 1546 1546 1547
1514 1509 1514 1518 1520 1523 1524 1524 1522 1517 1517 1514 1508 1504 1502 1498 1497 1498 1500 1503 1506 1508 1510 1514 1518 1522 1525 1528 1531 1534 1537 1539 1540 1541 1542 1543 1543 1545 1544 1541 1541 1541 1542
Wind_Speed
25 25 26 28 27 25 21 19 18 18 17 17 16 16 16 16 15 15 14 14 14 13 10 10 9 9 10 10 13 11 11 15 14 13 14 15 15 15 13 13 14 15 18
29 28 27 27 27 25 23 20 19 19 18 17 16 16 15 15 15 14 14 13 13 12 10 9 9 8 8 9 10 10 13 14 14 13 15 17 15 14 13 12 16 15 16
29 29 28 27 26 26 25 23 21 19 18 17 16 15 15 15 15 13 13 12 12 12 11 10 9 7 7 9 10 12 14 15 14 14 13 15 14 12 13 13 15 15 14
28 29 29 28 27 26 24 23 22 20 18 18 17 15 14 15 15 14 12 11 12 12 12 11 9 8 9 11 13 15 16 15 15 14 12 12 12 12 12 14 14 14 13
26 27 28 28 25 25 24 22 21 20 18 17 17 16 15 14 13 12 12 10 9 11 11 10 9 9 10 11 14 16 16 15 14 14 11 9 11 10 11 13 13 14 13
26 25 27 27 25 23 22 21 20 19 18 16 15 15 15 14 12 11 10 11 10 8 9 9 9 9 10 11 14 15 15 15 15 14 11 9 7 8 11 12 12 12 12
25 25 27 27 25 22 21 20 20 18 17 15 13 13 14 13 11 10 9 9 9 8 7 7 8 10 11 12 15 15 14 16 14 12 9 8 8 8 10 12 11 12 12
20 24 27 27 24 21 20 20 19 18 16 15 13 12 12 12 10 9 8 7 7 7 8 6 8 10 12 12 15 14 17 16 11 10 10 8 8 8 11 11 11 11 12
16 22 26 26 24 21 20 19 18 17 16 15 14 13 11 11 10 9 8 6 5 4 5 7 7 10 13 12 14 16 17 14 12 11 9 8 7 9 10 10 10 10 11
13 17 21 24 23 22 20 19 18 17 16 16 14 13 12 10 10 9 8 6 5 5 4 5 7 6 11 13 13 17 16 15 12 12 11 8 8 9 9 10 9 10 10
16 16 19 24 24 22 20 18 18 17 17 16 15 12 11 10 9 9 8 6 4 4 5 5 6 6 8 12 14 16 18 15 14 12 12 9 9 10 10 10 10 10 11
17 16 18 21 23 23 22 21 20 19 18 16 14 13 12 11 10 10 9 7 6 4 5 5 7 7 8 9 12 17 20 19 15 11 13 10 9 11 10 10 11 11 11
17 17 17 20 21 24 24 22 21 19 18 16 14 15 14 13 13 12 9 8 8 6 5 6 7 7 7 10 9 12 19 21 18 12 13 11 10 12 11 11 12 12 12
18 14 13 16 20 21 20 20 19 19 17 15 15 15 15 15 15 14 13 10 7 6 7 9 7 8 8 9 10 12 17 22 22 17 15 14 15 14 11 13 13 13 13
20 17 14 14 17 17 18 19 19 18 16 15 17 17 16 15 16 17 16 14 9 7 9 9 8 8 9 9 10 13 16 20 23 21 17 16 16 16 15 15 14 14 14
22 19 15 14 14 15 16 17 17 16 15 17 19 20 19 18 18 17 18 18 15 11 11 12 10 9 10 10 11 13 13 17 23 25 20 18 16 17 17 16 16 16 15
25 18 17 15 14 13 14 15 16 18 18 17 18 20 20 20 21 21 22 23 21 17 13 15 13 11 11 12 12 14 15 16 19 23 26 23 14 20 18 16 18 18 17
30 23 17 17 14 12 12 14 15 16 18 17 17 16 16 16 18 22 23 25 22 20 17 15 17 15 12 11 12 13 12 14 17 20 20 23 24 25 20 20 20 20 18
24 24 19 18 14 13 12 13 14 15 15 14 15 17 15 17 15 17 20 21 20 20 20 18 19 17 16 14 14 14 13 11 10 15 20 19 20 19 21 20 21 22 20
24 24 23 17 15 14 13 14 14 15 15 16 18 19 19 18 17 16 16 18 18 19 19 21 21 19 16 15 17 15 13 11 12 12 14 15 16 18 18 18 20 22 22
11 23 26 21 13 16 16 16 16 19 18 19 19 17 18 19 18 18 18 20 19 19 19 21 21 21 17 16 17 14 14 11 13 13 13 14 14 16 18 18 19 20 22
25 20 14 17 17 20 17 18 17 19 20 21 22 21 20 21 21 21 21 20 19 18 19 20 22 22 20 19 18 18 11 13 14 14 15 16 14 15 17 17 18 20 21
21 19 13 25 15 16 17 19 18 20 22 23 23 21 23 24 23 20 20 19 19 21 20 22 24 25 24 21 22 11 7 7 14 16 16 16 15 14 13 16 19 21 23
18 15 12 32 23 13 15 14 17 19 21 22 21 20 20 21 23 20 21 21 20 21 23 22 25 25 26 23 22 24 13 8 8 8 13 15 15 12 11 14 18 20 21
15 19 17 11 12 9 14 13 14 12 15 18 18 18 16 17 19 19 21 21 19 20 21 22 25 25 25 25 23 27 24 12 10 8 9 13 13 13 10 11 14 17 18
23 11 19 15 7 12 9 7 8 9 11 13 9 9 9 9 13 18 19 21 19 17 21 23 25 26 26 24 27 27 26 25 22 21 18 17 16 16 10 10 13 16 16
Wind_Direction
169 160 157 161 159 159 159 156 152 146 141 139 139 141 145 146 144 142 144 149 151 152 150 140 134 134 139 138 147 136 131 137 136 133 125 124 123 125 125 119 123 119 118
164 163 159 162 161 161 160 161 158 152 145 139 140 140 143 143 143 144 144 154 159 159 156 148 136 133 137 137 148 140 142 138 139 132 126 124 121 121 122 127 124 122 118
169 165 164 162 161 162 162 162 159 155 150 145 142 140 143 143 140 142 143 154 163 161 157 149 137 127 133 140 144 143 145 141 138 130 132 129 125 117 123 128 127 127 126
173 170 168 164 166 166 164 166 163 160 154 151 147 145 144 145 143 141 140 146 150 154 155 154 142 131 132 140 141 143 144 141 138 136 135 137 133 126 125 134 138 126 130
178 176 172 168 167 167 168 167 167 163 160 157 154 151 149 149 146 144 143 144 150 157 158 158 152 142 141 143 143 145 147 144 141 141 137 134 139 134 134 142 141 139 133
178 180 179 174 173 170 171 173 171 168 165 163 158 155 151 150 151 149 151 150 151 158 158 163 160 155 151 152 152 152 153 147 146 153 144 141 150 143 144 146 149 142 140
177 179 182 182 181 176 175 176 176 172 168 164 161 158 154 153 155 157 156 156 152 159 162 167 167 164 158 160 164 159 161 158 153 153 153 147 159 159 151 152 151 148 148
190 185 185 185 186 183 179 179 179 176 173 170 167 164 161 158 158 159 157 162 159 159 162 171 165 164 166 170 170 169 163 163 170 161 162 148 163 167 163 156 157 154 156
199 198 191 188 189 186 183 181 180 180 179 178 176 169 164 162 163 162 162 163 166 170 176 177 177 163 166 177 180 169 170 171 171 171 169 165 171 172 171 168 166 165 165
184 186 195 194 194 190 187 184 183 184 186 185 185 179 173 176 174 169 170 173 173 177 193 195 189 179 177 181 191 184 181 186 187 182 180 185 181 185 189 185 179 176 175
188 198 196 199 196 195 193 191 189 190 195 196 193 188 188 192 189 179 173 178 185 203 207 202 205 196 192 187 199 196 194 194 189 187 189 186 187 193 199 200 190 185 185
197 200 200 201 201 199 201 200 195 197 202 204 203 199 203 202 202 196 190 183 198 202 215 210 210 210 203 207 206 204 203 200 204 200 198 199 209 202 204 206 202 195 192
201 201 204 203 207 207 205 206 203 203 208 210 207 208 211 213 210 211 202 198 196 195 230 231 218 214 211 209 218 217 207 209 212 207 190 206 206 203 207 210 208 207 202
210 211 199 201 208 213 211 213 212 213 218 217 214 215 218 220 216 208 205 202 209 222 232 240 230 227 218 216 217 216 208 210 213 212 204 207 212 211 210 220 213 214 211
215 216 214 203 205 211 219 220 219 219 220 220 218 220 228 229 226 214 208 211 208 233 239 230 230 234 228 228 223 209 217 212 216 216 215 211 218 221 220 223 224 218 217
226 224 227 218 213 221 231 230 229 226 225 225 227 227 232 234 228 223 222 216 228 252 252 236 233 239 234 237 220 219 219 217 221 221 222 227 239 233 220 224 228 224 222
230 231 230 230 226 232 239 241 238 231 230 237 230 229 232 231 235 234 232 239 244 250 255 238 233 237 234 233 228 225 225 220 224 223 222 225 239 230 227 231 233 229 226
230 228 222 226 228 230 234 247 244 237 241 242 235 231 238 222 248 242 244 244 242 236 247 247 239 239 234 226 226 233 218 219 227 225 227 235 234 224 234 238 232 232 229
218 223 223 228 222 239 235 236 243 250 247 244 248 247 240 242 238 243 244 239 235 239 239 242 243 232 229 220 218 222 216 206 230 217 222 236 219 226 236 242 236 234 232
227 227 233 223 234 238 241 234 240 242 250 250 246 245 244 247 250 250 245 232 233 235 238 234 234 226 225 217 217 210 212 201 218 221 220 231 220 227 230 240 242 240 235
250 246 237 241 241 242 243 242 246 257 260 264 263 258 253 255 253 247 243 243 235 241 235 229 226 221 219 213 212 209 216 204 221 229 232 238 228 229 235 239 244 241 239
212 247 276 241 236 252 246 256 259 262 266 264 265 265 263 260 262 254 243 236 238 240 233 224 224 224 217 215 210 213 217 222 219 220 227 232 235 241 244 248 251 245 242
224 215 217 246 230 246 252 257 272 270 273 276 274 268 263 259 258 252 244 240 243 241 237 225 222 224 217 217 217 212 196 214 209 219 223 229 235 239 247 252 251 249 249
230 243 314 202 225 230 244 260 272 277 283 283 279 273 264 258 253 248 248 249 246 237 236 228 223 226 221 219 222 216 223 206 187 198 218 224 232 241 265 265 260 256 257
212 231 218 198 223 231 248 260 267 282 286 289 286 281 272 260 251 244 244 237 235 234 231 229 222 223 225 222 222 219 218 216 209 206 207 214 221 235 259 282 279 265 255
206 214 200 216 223 242 249 257 278 307 307 307 305 300 298 289 245 242 242 233 232 237 230 226 225 222 223 226 221 225 226 233 239 241 243 246 254 253 269 287 289 274 255